Погода в Таежном

Россия / Ханты-Мансийский автономный округ - Югра     61°09′36″N   62°40′48″E
темп.,
°C
ветер,
м/с
пор.,
м/с
влажн.,
%
обл.,
%
осадки,
мм/ч
давл.,
гПа
погр.,
м
20 мая, пт
пт2023:00+8ссв497370 0.0 998657
02:00+7ссз3775100 0.0 997961
05:00+6сз3784100 0.1 997688
08:00+5сз4687100 0.1 997735
11:00+3зсз4796100 1.7 998695
14:00+2зсз51196100 3.4 999603
17:00+2зсз51397100 8.6 1000705
20:00+3зсз51397100 3.9 1001689
21 мая, сб
сб2123:00+4зсз51197100 4.8 1002834
02:00+3сз4998100 0.4 1003640
05:00+2ссз3898100 0.4 1003418
08:00+2ссз3593100 0.1 1004640
11:00+3с3586100 0.1 1005841
14:00+4ссв3580100 0.1 1004890
17:00+3св4587100 0.3 1005648
20:00+2св4795100 0.1 1004643
22 мая, вс
вс2223:00+2св4997100 0.1 1002483
02:00+1св41398100 3.4 999496
05:00+2св71797100 11.0 994789
08:00+3всв71695100 0.5 991936
11:00+5всв51496100 3.6 990884
14:00+7в41297100 0.4 989752
17:00+8ююв4995100 0.6 990613
20:00+7юв4891100 0.1 990534
23 мая, пн
пн2323:00+4ю4796100 0.2 991524
02:00+3ю4997100 0.1 992851
05:00+2ю51092100 0.3 993952
08:00+4ю5986100 0.1 995969
11:00+7ююз596982 0.2 9971439
14:00+8ю586598 0.3 9981472
17:00+10ююз585335 0.6 9991813
20:00+8ююв267536 0.2 999288
24 мая, вт
вт2423:00+4юв2392100 0.2 100055
02:00+5юв1397100 0.1 1001112
05:00+5вюв1397100 0.6 1002109
08:00+6ююз1497100 0.2 1003204
11:00+10юз347098 0.7 10041156
14:00+10юз346699 0.8 10061033
17:00+10юз4665100 1.5 10081275
20:00+9юз24635 0.1 1010217